| time (UTC) | temp C | wind direction | speed KPH | gust KPH | rain 1hr cm | rain 24hr cm | rain mn cm | humidity % | barometer mb |
| 20260506040004 | 6 | 63 | 4.8 | 11.3 | 0.00 | 0.00 | 0.00 | 77 | 1010.9 |
| 20260506034504 | 6 | 66 | 6.4 | 14.5 | 0.00 | 0.00 | 0.00 | 77 | 1010.6 |
| 20260506033005 | 6 | 73 | 6.4 | 16.1 | 0.00 | 0.00 | 0.00 | 77 | 1010.3 |
| 20260506031505 | 6 | 68 | 4.8 | 22.5 | 0.00 | 0.00 | 0.00 | 78 | 1010.3 |
| 20260506030005 | 6 | 69 | 8.0 | 19.3 | 0.00 | 0.00 | 0.00 | 81 | 1010.3 |
| 20260506020004 | 6 | 86 | 4.8 | 19.3 | 0.00 | 0.00 | 0.00 | 92 | 1010.3 |
| 20260506014504 | 6 | 85 | 4.8 | 16.1 | 0.00 | 0.00 | 0.00 | 93 | 1010.2 |
| 20260506011504 | 6 | 79 | 4.8 | 12.9 | 0.00 | 0.00 | 0.00 | 94 | 1009.8 |
| 20260505234503 | 6 | 68 | 8.0 | 12.9 | 0.00 | 0.00 | 0.00 | 93 | 1009.2 |
| 20260505231504 | 6 | 71 | 9.7 | 16.1 | 0.00 | 0.00 | 0.00 | 93 | 1009.1 |
| 20260505230004 | 6 | 63 | 4.8 | 9.7 | 0.00 | 0.00 | 0.00 | 92 | 1009.1 |
| 20260505224504 | 6 | 56 | 3.2 | 4.8 | 0.00 | 0.00 | 0.00 | 91 | 1009.1 |
| 20260505221504 | 6 | 81 | 3.2 | 4.8 | 0.00 | 0.00 | 0.00 | 91 | 1009.1 |
| 20260505214504 | 6 | 50 | 0.0 | 4.8 | 0.00 | 0.00 | 0.00 | 91 | 1008.7 |
| 20260505213005 | 6 | 98 | 1.6 | 4.8 | 0.00 | 0.00 | 0.00 | 90 | 1008.7 |
| 20260505211504 | 7 | 84 | 1.6 | 3.2 | 0.00 | 0.00 | 0.00 | 89 | 1008.7 |
| 20260505210005 | 7 | 47 | 0.0 | 4.8 | 0.00 | 0.00 | 0.00 | 89 | 1008.4 |
| 20260505204504 | 7 | 58 | 1.6 | 9.7 | 0.00 | 0.00 | 0.00 | 88 | 1008.4 |
| 20260505201504 | 7 | 100 | 3.2 | 9.7 | 0.00 | 0.00 | 0.00 | 86 | 1008.3 |
| 20260505193005 | 9 | 107 | 1.6 | 11.3 | 0.00 | 0.00 | 0.00 | 79 | 1007.9 |
| 20260505184503 | 11 | 107 | 3.2 | 11.3 | 0.00 | 0.00 | 0.00 | 69 | 1007.7 |
| 20260505181503 | 12 | 86 | 4.8 | 12.9 | 0.00 | 0.00 | 0.00 | 64 | 1007.7 |
| 20260505180003 | 12 | 123 | 3.2 | 12.9 | 0.00 | 0.00 | 0.00 | 62 | 1007.6 |
| 20260505173004 | 13 | 90 | 4.8 | 16.1 | 0.00 | 0.00 | 0.00 | 60 | 1007.5 |
| 20260505171503 | 13 | 85 | 8.0 | 12.9 | 0.00 | 0.00 | 0.00 | 57 | 1007.4 |
| 20260505170004 | 14 | 76 | 9.7 | 19.3 | 0.00 | 0.00 | 0.00 | 55 | 1007.3 |
| 20260505163004 | 14 | 133 | 4.8 | 14.5 | 0.00 | 0.00 | 0.00 | 54 | 1007.4 |
| 20260505161503 | 14 | 70 | 8.0 | 19.3 | 0.00 | 0.00 | 0.00 | 51 | 1007.4 |
| 20260505124504 | 16 | 191 | 4.8 | 14.5 | 0.00 | 0.00 | 0.00 | 56 | 1007.5 |
| 20260505120005 | 15 | 220 | 6.4 | 19.3 | 0.00 | 0.00 | 0.00 | 56 | 1007.5 |
| 20260505114503 | 15 | 209 | 6.4 | 19.3 | 0.00 | 0.00 | 0.00 | 59 | 1007.5 |
| 20260505091503 | 13 | 262 | 4.8 | 11.3 | 0.00 | 0.00 | 0.00 | 61 | 1008.0 |
| 20260505090004 | 13 | 265 | 4.8 | 12.9 | 0.00 | 0.00 | 0.00 | 66 | 1007.9 |
| 20260505084504 | 12 | 269 | 3.2 | 9.7 | 0.00 | 0.00 | 0.00 | 69 | 1007.9 |
| 20260505083004 | 12 | 252 | 4.8 | 11.3 | 0.00 | 0.00 | 0.00 | 67 | 1008.0 |
| 20260505074504 | 12 | 249 | 4.8 | 9.7 | 0.00 | 0.00 | 0.00 | 69 | 1008.1 |
| 20260505071504 | 11 | 275 | 4.8 | 9.7 | 0.00 | 0.00 | 0.00 | 71 | 1008.2 |
| 20260505064504 | 10 | 283 | 3.2 | 9.7 | 0.00 | 0.00 | 0.00 | 75 | 1008.2 |
| 20260505063005 | 10 | 277 | 4.8 | 12.9 | 0.00 | 0.00 | 0.00 | 76 | 1008.2 |
| 20260505060004 | 9 | 276 | 4.8 | 12.9 | 0.00 | 0.00 | 0.00 | 79 | 1008.3 |
| 20260505054504 | 9 | 268 | 4.8 | 12.9 | 0.00 | 0.00 | 0.00 | 82 | 1008.3 |
| 20260505053005 | 8 | 276 | 8.0 | 12.9 | 0.00 | 0.00 | 0.00 | 82 | 1008.2 |